• In Russia
  • List of Countries
  • For 7 days
  • Water Temperature
  • Satellite Maps
  • Weather Map
  • Weather Widgets
  • user-avatar
    Login

    Hourly Weather Gold Coast

    Today, 21 July, Friday

    Time Temperature Precipitation Wind Pressure Humidity
    00:00 +8°C° 0 mm 5 mps 758 mmHg 67%
    01:00 +8°C° 0 mm 5 mps 758 mmHg 67%
    02:00 +8°C° 0 mm 5 mps 758 mmHg 67%
    03:00 +7°C° 0 mm 5 mps 758 mmHg 67%
    04:00 +7°C° 0 mm 5 mps 759 mmHg 66%
    05:00 +7°C° 0 mm 4 mps 759 mmHg 66%
    06:00 +6°C° 0 mm 4 mps 759 mmHg 65%
    07:00 +6°C° 0 mm 4 mps 760 mmHg 64%
    08:00 +10°C° 0 mm 4 mps 760 mmHg 56%
    09:00 +12°C° 0 mm 3 mps 760 mmHg 47%
    10:00 +16°C° 0 mm 3 mps 761 mmHg 39%
    11:00 +18°C° 0 mm 3 mps 760 mmHg 36%
    12:00 +19°C° 0 mm 3 mps 760 mmHg 33%
    13:00 +21°C° 0 mm 2 mps 760 mmHg 30%
    14:00 +20°C° 0 mm 3 mps 760 mmHg 33%
    15:00 +19°C° 0 mm 3 mps 760 mmHg 37%
    16:00 +18°C° 0 mm 4 mps 760 mmHg 40%
    17:00 +15°C° 0 mm 4 mps 760 mmHg 47%
    18:00 +13°C° 0 mm 4 mps 761 mmHg 55%
    19:00 +11°C° 0 mm 4 mps 761 mmHg 62%
    20:00 +11°C° 0 mm 4 mps 762 mmHg 64%
    21:00 +10°C° 0 mm 4 mps 762 mmHg 65%
    22:00 +9°C° 0 mm 3 mps 763 mmHg 67%
    23:00 +9°C° 0 mm 3 mps 763 mmHg 67%

    Tomorrow, 22 July, Saturday

    Time Temperature Precipitation Wind Pressure Humidity
    00:00 +9°C° 0 mm 3 mps 763 mmHg 68%
    01:00 +8°C° 0 mm 3 mps 763 mmHg 68%
    02:00 +8°C° 0 mm 3 mps 762 mmHg 69%
    03:00 +8°C° 0 mm 3 mps 762 mmHg 70%
    04:00 +7°C° 0 mm 4 mps 762 mmHg 71%
    05:00 +8°C° 0 mm 3 mps 763 mmHg 72%
    06:00 +8°C° 0 mm 3 mps 763 mmHg 72%
    07:00 +8°C° 0 mm 3 mps 763 mmHg 72%
    08:00 +11°C° 0 mm 3 mps 764 mmHg 63%
    09:00 +14°C° 0 mm 3 mps 764 mmHg 55%
    10:00 +18°C° 0 mm 2 mps 764 mmHg 46%
    11:00 +19°C° 0 mm 2 mps 763 mmHg 43%
    12:00 +20°C° 0 mm 2 mps 763 mmHg 40%
    13:00 +23°C° 0 mm 1 mps 762 mmHg 37%
    14:00 +21°C° 0 mm 2 mps 762 mmHg 40%
    15:00 +20°C° 0 mm 2 mps 762 mmHg 44%
    16:00 +19°C° 0 mm 2 mps 761 mmHg 47%
    17:00 +17°C° 0 mm 2 mps 762 mmHg 56%
    18:00 +15°C° 0 mm 2 mps 762 mmHg 66%
    19:00 +13°C° 0 mm 1 mps 763 mmHg 75%
    20:00 +13°C° 0 mm 1 mps 763 mmHg 78%
    21:00 +12°C° 0 mm 1 mps 763 mmHg 82%
    22:00 +12°C° 0 mm 1 mps 764 mmHg 85%
    23:00 +12°C° 0 mm 1 mps 763 mmHg 86%

    Day after tomorrow, 23 July, Sunday

    Time Temperature Precipitation Wind Pressure Humidity
    00:00 +11°C° 0 mm 1 mps 763 mmHg 87%
    01:00 +10°C° 0 mm 2 mps 763 mmHg 87%
    02:00 +10°C° 0 mm 2 mps 763 mmHg 87%
    03:00 +10°C° 0 mm 2 mps 762 mmHg 88%
    04:00 +9°C° 0 mm 2 mps 762 mmHg 88%
    05:00 +9°C° 0 mm 3 mps 763 mmHg 89%
    06:00 +9°C° 0 mm 3 mps 763 mmHg 89%
    07:00 +9°C° 0 mm 3 mps 763 mmHg 90%
    08:00 +12°C° 0 mm 3 mps 763 mmHg 76%
    09:00 +15°C° 0 mm 4 mps 763 mmHg 63%
    10:00 +19°C° 0 mm 4 mps 763 mmHg 50%
    11:00 +20°C° 0 mm 4 mps 763 mmHg 45%
    12:00 +21°C° 0 mm 4 mps 762 mmHg 40%
    13:00 +23°C° 0 mm 4 mps 761 mmHg 35%
    14:00 +22°C° 0 mm 3 mps 761 mmHg 37%
    15:00 +22°C° 0 mm 3 mps 760 mmHg 40%
    16:00 +22°C° 0 mm 3 mps 760 mmHg 43%
    17:00 +19°C° 0 mm 3 mps 761 mmHg 46%
    18:00 +17°C° 0 mm 3 mps 761 mmHg 50%
    19:00 +14°C° 0 mm 3 mps 762 mmHg 53%
    20:00 +13°C° 0 mm 3 mps 762 mmHg 52%
    21:00 +12°C° 0 mm 3 mps 762 mmHg 52%
    22:00 +11°C° 0 mm 3 mps 762 mmHg 51%
    23:00 +11°C° 0 mm 3 mps 762 mmHg 52%

    24 July, Monday

    Time Temperature Precipitation Wind Pressure Humidity
    00:00 +10°C° 0 mm 2 mps 762 mmHg 53%
    01:00 +10°C° 0 mm 2 mps 762 mmHg 54%
    02:00 +9°C° 0 mm 2 mps 761 mmHg 53%
    03:00 +9°C° 0 mm 2 mps 761 mmHg 52%
    04:00 +9°C° 0 mm 2 mps 761 mmHg 51%
    05:00 +9°C° 0 mm 2 mps 762 mmHg 50%
    06:00 +9°C° 0 mm 2 mps 762 mmHg 49%
    07:00 +9°C° 0 mm 2 mps 763 mmHg 49%
    08:00 +14°C° 0 mm 2 mps 763 mmHg 43%
    09:00 +18°C° 0 mm 1 mps 763 mmHg 38%
    10:00 +22°C° 0 mm 1 mps 763 mmHg 33%
    11:00 +23°C° 0 mm 1 mps 762 mmHg 31%
    12:00 +25°C° 0 mm 1 mps 762 mmHg 29%
    13:00 +26°C° 0 mm 1 mps 761 mmHg 27%
    14:00 +25°C° 0 mm 1 mps 761 mmHg 32%
    15:00 +24°C° 0 mm 2 mps 761 mmHg 36%
    16:00 +23°C° 0 mm 2 mps 761 mmHg 41%
    17:00 +20°C° 0 mm 2 mps 761 mmHg 47%
    18:00 +17°C° 0 mm 2 mps 762 mmHg 53%
    19:00 +15°C° 0 mm 1 mps 762 mmHg 59%
    20:00 +15°C° 0 mm 1 mps 762 mmHg 59%
    21:00 +14°C° 0 mm 1 mps 763 mmHg 59%
    22:00 +14°C° 0 mm 2 mps 763 mmHg 59%
    23:00 +13°C° 0 mm 2 mps 763 mmHg 59%

    25 July, Tuesday

    Time Temperature Precipitation Wind Pressure Humidity
    00:00 +13°C° 0 mm 2 mps 763 mmHg 58%
    01:00 +12°C° 0 mm 2 mps 763 mmHg 58%
    02:00 +12°C° 0 mm 2 mps 762 mmHg 58%
    03:00 +12°C° 0 mm 2 mps 762 mmHg 58%
    04:00 +11°C° 0 mm 3 mps 762 mmHg 57%
    05:00 +10°C° 0 mm 2 mps 763 mmHg 57%
    06:00 +10°C° 0 mm 2 mps 763 mmHg 57%
    07:00 +10°C° 0 mm 2 mps 764 mmHg 57%
    08:00 +14°C° 0 mm 2 mps 764 mmHg 50%
    09:00 +18°C° 0 mm 2 mps 764 mmHg 43%
    10:00 +22°C° 0 mm 1 mps 764 mmHg 35%
    11:00 +23°C° 0 mm 1 mps 763 mmHg 32%
    12:00 +24°C° 0 mm 1 mps 762 mmHg 30%
    13:00 +26°C° 0 mm 1 mps 762 mmHg 27%
    14:00 +25°C° 0 mm 1 mps 761 mmHg 30%
    15:00 +24°C° 0 mm 2 mps 761 mmHg 34%
    16:00 +23°C° 0 mm 2 mps 761 mmHg 37%
    17:00 +20°C° 0 mm 2 mps 761 mmHg 43%
    18:00 +18°C° 0 mm 2 mps 762 mmHg 50%
    19:00 +15°C° 0 mm 2 mps 762 mmHg 56%
    20:00 +15°C° 0 mm 2 mps 762 mmHg 56%
    21:00 +13°C° 0 mm 3 mps 763 mmHg 56%
    22:00 +13°C° 0 mm 3 mps 763 mmHg 57%
    23:00 +13°C° 0 mm 3 mps 762 mmHg 57%

    26 July, Wednesday

    Time Temperature Precipitation Wind Pressure Humidity
    00:00 +13°C° 0 mm 3 mps 762 mmHg 57%
    01:00 +13°C° 0 mm 3 mps 762 mmHg 57%
    02:00 +13°C° 0 mm 3 mps 762 mmHg 57%
    03:00 +14°C° 0 mm 2 mps 762 mmHg 57%
    04:00 +14°C° 0 mm 2 mps 761 mmHg 57%
    05:00 +13°C° 0 mm 2 mps 762 mmHg 57%
    06:00 +13°C° 0 mm 2 mps 762 mmHg 57%
    07:00 +12°C° 0 mm 3 mps 762 mmHg 57%
    08:00 +16°C° 0 mm 3 mps 762 mmHg 51%
    09:00 +19°C° 0 mm 3 mps 762 mmHg 44%
    10:00 +22°C° 0 mm 3 mps 762 mmHg 37%
    11:00 +24°C° 0 mm 3 mps 762 mmHg 34%
    12:00 +26°C° 0 mm 3 mps 761 mmHg 31%
    13:00 +27°C° 0 mm 3 mps 760 mmHg 27%
    14:00 +26°C° 0 mm 3 mps 760 mmHg 30%
    15:00 +25°C° 0 mm 3 mps 760 mmHg 34%
    16:00 +24°C° 0 mm 3 mps 760 mmHg 37%
    17:00 +22°C° 0 mm 3 mps 760 mmHg 39%
    18:00 +20°C° 0 mm 4 mps 760 mmHg 41%
    19:00 +19°C° 0 mm 4 mps 761 mmHg 43%
    20:00 +17°C° 0 mm 5 mps 761 mmHg 46%
    21:00 +16°C° 0 mm 5 mps 762 mmHg 48%
    22:00 +16°C° 0 mm 6 mps 762 mmHg 51%
    23:00 +15°C° 0 mm 6 mps 762 mmHg 53%
    Show more